[[{"header":{"parameterUnit":"m.s-1","parameterCategory":1,"la1":30.2991,"la2":30.254,"lo1":-89.0895,"lo2":-89.0444,"dy":0.0017,"dx":0.0017,"nx":28,"ny":28,"refTime":"2025-04-23T21:00:00:Z","depth":0,"parameterNumber":2,"parameterNumberName":"U-component_of_WINDS"},"data":[0,0,0,0,0,0,0,0,0,0,0,0,0,0,0,0,0,0,0,0,0,0,0,0,0,0,0,0,0,0,0,0,0,0,0,0,0,0,0,0,0,0,0,0,0,0,0,0,0,0,0,0,0,0,0,0,0,0,-3.254,-3.2541,0,-3.2653,-3.2654,-3.2655,-3.2639,-3.2637,-3.2635,-3.2633,-3.2749,-3.2754,-3.2758,0,0,0,0,0,0,0,0,0,0,0,0,0,-3.2313,-3.2317,-3.254,-3.2542,-3.2543,-3.2652,-3.2654,-3.2656,-3.2639,-3.2637,-3.2635,-3.2633,-3.2747,-3.2753,-3.2759,0,0,0,0,0,0,0,0,0,0,0,0,0,-3.2417,-3.2319,-3.254,-3.2548,-3.255,-3.2652,-3.2654,-3.2656,-3.264,-3.2637,-3.2634,-3.2631,-3.2745,-3.2752,-3.276,-3.2861,0,0,-3.2782,-3.2785,0,0,0,0,0,0,0,0,-3.2411,-3.2426,-3.2545,-3.2548,-3.255,-3.2629,-3.2616,-3.2725,-3.2641,-3.2606,-3.2633,-3.263,-3.2711,-3.2721,-3.2749,-3.2866,-3.2871,-3.2782,-3.2787,-3.279,-3.2792,0,0,0,0,0,0,0,-3.2404,-3.2421,-3.2585,-3.2547,-3.255,-3.2547,-3.2558,-3.2637,-3.2673,-3.2608,-3.2608,-3.2621,-3.2712,-3.2742,-3.2751,-3.2873,-3.2782,-3.2789,-3.2793,-3.2796,-3.3081,-3.3084,0,0,0,0,0,0,-3.2395,-3.2415,-3.2581,-3.2588,-3.2472,-3.2553,-3.2566,-3.2606,-3.2672,-3.2679,-3.2623,-3.262,-3.2731,-3.2743,-3.2755,-3.2878,-3.279,-3.2797,-3.2801,-3.3078,-3.3082,-3.3085,0,0,0,0,0,0,-3.239,-3.2409,-3.2577,-3.2501,-3.2522,-3.256,-3.2605,-3.261,-3.264,-3.2683,-3.269,-3.2647,-3.2729,-3.2745,-3.2835,-3.2882,-3.28,-3.2807,-3.3074,-3.3079,-3.3084,-3.3125,0,0,0,0,0,0,-3.2383,-3.2408,-3.2446,-3.2502,-3.2526,-3.2654,-3.2608,-3.2614,-3.2652,-3.2649,-3.2707,-3.2714,-3.2728,-3.2824,-3.2842,-3.2891,-3.2812,-3.307,-3.3076,-3.3082,-3.312,-3.3131,-3.3141,0,0,0,0,0,-3.2375,-3.2453,-3.2448,-3.2468,-3.2575,-3.2657,-3.2671,-3.2685,-3.2656,-3.2695,-3.2724,-3.2712,-3.2875,-3.2834,-3.2854,-3.2905,-3.3067,-3.3075,-3.3082,-3.3115,-3.3129,-3.314,0,0,0,0,0,0,-3.2401,-3.2461,-3.2456,-3.2554,-3.2601,-3.2654,-3.2703,-3.2699,-3.2754,-3.2749,-3.2764,-3.2778,-3.2869,-3.2896,-3.285,-3.3007,-3.2967,-3.2979,-3.2986,-3.2999,-3.3009,-3.3,-3.2818,0,0,0,0,0,-3.2419,-3.248,-3.2529,-3.2611,-3.2635,-3.2665,-3.2702,-3.2709,-3.2757,-3.2777,-3.2812,-3.286,-3.2922,-3.2962,-3.3021,-3.3125,-3.3137,-3.317,-3.318,-3.3188,-3.3198,-3.3255,-3.327,-3.3109,-3.3109,-3.3109,0,0,-3.2455,-3.2495,-3.2533,-3.2617,-3.2654,-3.2718,-3.2682,-3.275,-3.2798,-3.2787,-3.2874,-3.2902,-3.2957,-3.3054,-3.3099,-3.308,-3.3246,-3.3198,-3.3204,-3.3209,-3.3264,-3.3279,-3.3293,-3.3114,-3.3113,-3.3113,0,0,-3.2553,-3.259,-3.2662,-3.27,-3.2757,-3.2777,-3.2795,-3.285,-3.2867,-3.2955,-3.2949,-3.3007,-3.3113,-3.3152,-3.3186,-3.3302,-3.3293,-3.3321,-3.3374,-3.343,-3.3442,-3.3454,-3.3495,-3.3509,-3.333,-3.3331,-3.3331,0,-3.2591,-3.2686,-3.27,-3.277,-3.2808,-3.2802,-3.2876,-3.2913,-3.2986,-3.3012,-3.299,-3.3124,-3.3161,-3.3267,-3.3296,-3.3324,-3.3344,-3.3313,-3.3439,-3.3451,-3.3461,-3.3501,-3.3516,-3.3334,-3.3333,-3.3333,-3.3333,0,-3.2729,-3.2796,-3.2848,-3.2919,-3.2962,-3.3034,-3.306,-3.3103,-3.3107,-3.313,-3.322,-3.3265,-3.3333,-3.3359,-3.3364,-3.3467,-3.3454,-3.3436,-3.3395,-3.3479,-3.3517,-3.3532,-3.3338,-3.3337,-3.3336,-3.3335,0,0,-3.2845,-3.2924,-3.2943,-3.2976,-3.3039,-3.309,-3.3163,-3.323,-3.3266,-3.3318,-3.3378,-3.347,-3.3454,-3.3492,-3.3502,-3.3551,-3.364,-3.3527,-3.3528,-3.3545,-3.3756,-3.3769,-3.3786,-3.3635,-3.3638,-3.3641,-3.3752,0,-3.2948,-3.3075,-3.3091,-3.3204,-3.3265,-3.3262,-3.3325,-3.3371,-3.3395,-3.3452,-3.3478,-3.3542,-3.3517,-3.354,-3.3589,-3.3618,-3.3682,-3.3611,-3.3692,-3.3695,-3.3677,-3.3805,-3.3818,-3.3921,-3.3766,-3.3769,-3.3771,0,-3.3085,-3.3141,-3.3259,-3.3315,-3.3342,-3.3398,-3.3461,-3.3515,-3.3568,-3.3582,-3.3626,-3.363,-3.3705,-3.3663,-3.3768,-3.3719,-3.3754,-3.3774,-3.3778,-3.3785,-3.3736,-3.3815,-3.3954,-3.3969,-3.3794,-3.3792,-3.379,0,-3.3157,-3.3262,-3.3346,-3.3374,-3.3441,-3.3481,-3.3511,-3.3561,-3.3601,-3.3657,-3.3683,-3.3747,-3.3782,-3.3832,-3.3853,-3.3821,-3.3957,-3.3916,-3.397,-3.397,-3.3997,-3.3995,-3.4143,-3.4022,-3.4022,-3.4021,-3.4021,0,-3.327,-3.3343,-3.3379,-3.3431,-3.3513,-3.3532,-3.3612,-3.3641,-3.3686,-3.3744,-3.3746,-3.38,-3.3826,-3.3884,-3.3902,-3.3986,-3.4002,-3.4015,-3.4019,-3.4015,-3.4013,-3.4036,-3.4029,-3.4026,-3.4025,-3.4024,-3.4023,0,-3.3363,-3.3391,-3.3483,-3.3539,-3.3555,-3.3613,-3.3661,-3.3712,-3.3737,-3.381,-3.3829,-3.3867,-3.3936,-3.3963,-3.4048,-3.406,-3.4156,-3.4155,-3.4138,-3.4139,-3.4191,-3.4186,-3.4358,-3.4382,-3.4246,-3.4247,-3.4249,0,-3.3433,-3.3488,-3.3551,-3.359,-3.3622,-3.3684,-3.3725,-3.3747,-3.379,-3.3855,-3.3898,-3.3967,-3.4023,-3.4135,-3.417,-3.4236,-3.4235,-3.4291,-3.4245,-3.4239,-3.4235,-3.4231,-3.4237,-3.4299,-3.43,-3.4302,-3.4302,0,-3.3553,-3.3565,-3.3623,-3.3687,-3.3736,-3.3788,-3.3838,-3.387,-3.3899,-3.3947,-3.4018,-3.4062,-3.4149,-3.4218,-3.4285,-3.4317,-3.4315,-3.4317,-3.4333,-3.4328,-3.4316,-3.4323,-3.416,-3.4313,-3.4312,-3.4311,-3.431,-3.431,-3.3636,-3.3686,-3.3738,-3.3804,-3.3844,-3.3891,-3.3942,-3.3973,-3.4033,-3.4105,-3.4115,-3.4191,-3.4244,-3.4334,-3.4369,-3.4429,-3.4414,-3.4437,-3.4443,-3.4448,-3.4452,-3.4308,-3.4442,-3.4442,-3.4441,-3.4441,-3.4441,0,-3.3756,-3.379,-3.3851,-3.3921,-3.3973,-3.3967,-3.4023,-3.4067,-3.4134,-3.4183,-3.4239,-3.4321,-3.4389,-3.4431,-3.4499,-3.4539,-3.454,-3.4556,-3.4553,-3.456,-3.4461,-3.444,-3.4554,-3.4554,-3.4554,-3.4554,-3.4554,-3.4554,-3.3825,-3.3909,-3.3927,-3.4031,-3.4065,-3.4139,-3.4171,-3.4215,-3.4255,-3.4347,-3.4403,-3.443,-3.4476,-3.4548,-3.461,-3.4621,-3.4645,-3.4663,-3.4672,-3.4579,-3.4567,-3.4556,-3.4536,-3.4668,-3.4668,-3.4765,-3.4766,-3.4767]},{"header":{"parameterUnit":"m.s-1","parameterCategory":1,"la1":30.2991,"la2":30.254,"lo1":-89.0895,"lo2":-89.0444,"dy":0.0017,"dx":0.0017,"nx":28,"ny":28,"refTime":"2025-04-23T21:00:00:Z","depth":0,"parameterNumber":3,"parameterNumberName":"V-component_of_WINDS"},"data":[0,0,0,0,0,0,0,0,0,0,0,0,0,0,0,0,0,0,0,0,0,0,0,0,0,0,0,0,0,0,0,0,0,0,0,0,0,0,0,0,0,0,0,0,0,0,0,0,0,0,0,0,0,0,0,0,0,0,1.8578,1.8579,0,1.8652,1.8653,1.8654,1.8644,1.8643,1.8642,1.864,1.871,1.8713,1.8716,0,0,0,0,0,0,0,0,0,0,0,0,0,1.8425,1.8428,1.8578,1.8579,1.858,1.8652,1.8653,1.8654,1.8644,1.8643,1.8641,1.864,1.8709,1.8713,1.8717,0,0,0,0,0,0,0,0,0,0,0,0,0,1.8495,1.8429,1.8578,1.8584,1.8585,1.8652,1.8653,1.8654,1.8644,1.8643,1.8641,1.8639,1.8708,1.8713,1.8717,1.878,0,0,1.8731,1.8733,0,0,0,0,0,0,0,0,1.8491,1.85,1.8582,1.8584,1.8585,1.8637,1.8624,1.8696,1.8645,1.8622,1.864,1.8638,1.8687,1.8693,1.8711,1.8784,1.8787,1.8731,1.8734,1.8736,1.8737,0,0,0,0,0,0,0,1.8486,1.8497,1.8607,1.8584,1.8585,1.8582,1.859,1.8638,1.8663,1.8624,1.8623,1.8632,1.8688,1.8706,1.8712,1.8788,1.8731,1.8735,1.8738,1.8739,1.8916,1.8918,0,0,0,0,0,0,1.848,1.8493,1.8605,1.8609,1.8533,1.8586,1.8595,1.8622,1.8663,1.8668,1.8634,1.8632,1.87,1.8707,1.8715,1.8792,1.8736,1.874,1.8742,1.8914,1.8917,1.8919,0,0,0,0,0,0,1.8477,1.849,1.8602,1.8551,1.8565,1.8591,1.8621,1.8625,1.8644,1.8671,1.8675,1.8649,1.8699,1.8708,1.8765,1.8794,1.8742,1.8746,1.8912,1.8915,1.8918,1.8947,0,0,0,0,0,0,1.8473,1.8489,1.8514,1.8552,1.8568,1.8652,1.8623,1.8627,1.8652,1.865,1.8686,1.869,1.8698,1.8758,1.8769,1.8799,1.8749,1.8909,1.8913,1.8917,1.8943,1.895,1.8956,0,0,0,0,0,1.8467,1.8518,1.8516,1.8529,1.86,1.8654,1.8663,1.8673,1.8654,1.8679,1.8697,1.8689,1.8789,1.8764,1.8776,1.8808,1.8908,1.8912,1.8917,1.894,1.8949,1.8956,0,0,0,0,0,0,1.8481,1.8523,1.8521,1.8586,1.8617,1.8652,1.8684,1.8681,1.8716,1.8713,1.8722,1.873,1.8787,1.8803,1.8774,1.8872,1.8846,1.8853,1.8859,1.8868,1.8874,1.8869,1.8753,0,0,0,0,0,1.8493,1.8534,1.8568,1.8622,1.8637,1.8658,1.8682,1.8687,1.8718,1.8731,1.8752,1.8781,1.882,1.8845,1.8881,1.8945,1.8953,1.8974,1.898,1.8986,1.8992,1.9027,1.9037,1.8934,1.8934,1.8934,0,0,1.8515,1.8543,1.8568,1.8625,1.865,1.8691,1.8669,1.8714,1.8744,1.8737,1.8792,1.8809,1.8842,1.8903,1.893,1.8918,1.9022,1.8991,1.8995,1.8999,1.9033,1.9042,1.9051,1.8937,1.8937,1.8936,0,0,1.8578,1.8603,1.8652,1.8677,1.8715,1.8729,1.874,1.8777,1.8788,1.8844,1.884,1.8875,1.8941,1.8965,1.8986,1.9059,1.9053,1.907,1.9105,1.9139,1.9147,1.9155,1.9181,1.919,1.9076,1.9076,1.9076,0,1.86,1.8665,1.8676,1.8722,1.8747,1.8745,1.8793,1.8816,1.8864,1.888,1.8866,1.8949,1.8971,1.9038,1.9056,1.9073,1.9086,1.9066,1.9146,1.9153,1.916,1.9185,1.9195,1.9078,1.9078,1.9078,1.9078,0,1.8691,1.8735,1.877,1.8818,1.8847,1.8893,1.8911,1.8938,1.8941,1.8956,1.9013,1.9039,1.9082,1.9098,1.91,1.9165,1.9156,1.9144,1.9118,1.9171,1.9195,1.9205,1.9081,1.908,1.908,1.9079,0,0,1.8764,1.8819,1.8831,1.8854,1.8896,1.893,1.8976,1.902,1.9043,1.9076,1.9114,1.9171,1.916,1.9184,1.9189,1.9219,1.9275,1.9203,1.9204,1.9215,1.9349,1.9358,1.9369,1.9272,1.9274,1.9275,1.9346,0,1.8831,1.8915,1.8927,1.9001,1.9042,1.9041,1.9081,1.9111,1.9126,1.9162,1.9178,1.9218,1.92,1.9215,1.9245,1.9262,1.9302,1.9257,1.9307,1.9309,1.9299,1.9381,1.9391,1.9457,1.9355,1.9357,1.9358,0,1.892,1.8958,1.9036,1.9074,1.9092,1.9128,1.9169,1.9204,1.9237,1.9246,1.9273,1.9275,1.9322,1.9294,1.9358,1.9328,1.9349,1.936,1.9363,1.9368,1.9337,1.9388,1.9478,1.9488,1.9373,1.9371,1.937,0,1.8966,1.9036,1.9092,1.9111,1.9156,1.9182,1.9202,1.9233,1.9259,1.9294,1.9311,1.935,1.9372,1.9402,1.9414,1.9393,1.9478,1.9451,1.9486,1.9485,1.9503,1.9502,1.9597,1.9517,1.9517,1.9516,1.9516,0,1.9039,1.9088,1.9114,1.9148,1.9202,1.9215,1.9267,1.9286,1.9314,1.9352,1.9352,1.9386,1.94,1.9436,1.9445,1.9498,1.9507,1.9515,1.9517,1.9515,1.9514,1.9529,1.9525,1.9519,1.9518,1.9518,1.9518,0,1.91,1.9119,1.9181,1.9219,1.923,1.9268,1.93,1.9333,1.9348,1.9395,1.9407,1.943,1.9473,1.9488,1.954,1.9546,1.9607,1.9604,1.9596,1.9596,1.9631,1.9627,1.9739,1.9754,1.9663,1.9664,1.9665,0,1.9145,1.9183,1.9226,1.9252,1.9273,1.9315,1.9342,1.9356,1.9383,1.9425,1.9452,1.9496,1.9531,1.96,1.962,1.966,1.9659,1.9695,1.9664,1.9662,1.9659,1.9657,1.9661,1.97,1.9701,1.9702,1.9703,0,1.9225,1.9233,1.9273,1.9316,1.9349,1.9383,1.9416,1.9437,1.9455,1.9486,1.9532,1.9559,1.9613,1.9656,1.9696,1.9715,1.9712,1.9712,1.9723,1.9721,1.9715,1.9719,1.9612,1.971,1.9709,1.9708,1.9708,1.9708,1.9279,1.9313,1.9349,1.9393,1.942,1.9452,1.9485,1.9505,1.9544,1.959,1.9595,1.9644,1.9676,1.9731,1.9751,1.9789,1.9778,1.9793,1.9797,1.98,1.9803,1.9709,1.9796,1.9796,1.9795,1.9795,1.9795,0,1.9359,1.9383,1.9423,1.9471,1.9506,1.9502,1.9539,1.9567,1.9611,1.9642,1.9678,1.973,1.9771,1.9796,1.9837,1.9862,1.9862,1.9873,1.9871,1.9875,1.981,1.9797,1.9872,1.9872,1.9872,1.9872,1.9872,1.9872,1.9405,1.9462,1.9474,1.9544,1.9567,1.9616,1.9638,1.9666,1.9691,1.975,1.9786,1.9802,1.983,1.9874,1.9912,1.9918,1.9933,1.9945,1.995,1.9888,1.988,1.9872,1.986,1.9948,1.9948,2.0012,2.0013,2.0013]}]]